• In Russia
  • List of Countries
  • For 7 days
  • Water Temperature
  • Satellite Maps
  • Weather Map
  • Weather Widgets
  • user-avatar
    Login

    Hourly Weather Shusha

    Today, 24 May, Thursday

    Time Temperature Precipitation Wind Pressure Humidity
    00:00 +13°C° 0 mm 3 mps 662 mmHg 48%
    01:00 +12°C° 0 mm 3 mps 662 mmHg 45%
    02:00 +12°C° 0 mm 3 mps 662 mmHg 43%
    03:00 +12°C° 0 mm 3 mps 661 mmHg 40%
    04:00 +14°C° 0 mm 2 mps 661 mmHg 41%
    05:00 +14°C° 0 mm 2 mps 662 mmHg 42%
    06:00 +15°C° 0 mm 2 mps 662 mmHg 42%
    07:00 +17°C° 0 mm 2 mps 662 mmHg 38%
    08:00 +19°C° 0 mm 2 mps 663 mmHg 34%
    09:00 +21°C° 0 mm 2 mps 663 mmHg 29%
    10:00 +23°C° 0 mm 2 mps 663 mmHg 29%
    11:00 +24°C° 0 mm 2 mps 663 mmHg 28%
    12:00 +24°C° 0 mm 3 mps 663 mmHg 28%
    13:00 +25°C° 0 mm 3 mps 662 mmHg 28%
    14:00 +25°C° 0 mm 3 mps 662 mmHg 27%
    15:00 +25°C° 0 mm 3 mps 661 mmHg 27%
    16:00 +24°C° 0 mm 2 mps 661 mmHg 30%
    17:00 +23°C° 0 mm 2 mps 660 mmHg 34%
    18:00 +22°C° 0 mm 1 mps 660 mmHg 37%
    19:00 +19°C° 0 mm 2 mps 659 mmHg 39%
    20:00 +17°C° 0 mm 2 mps 659 mmHg 41%
    21:00 +14°C° 0 mm 3 mps 659 mmHg 43%
    22:00 +14°C° 0 mm 3 mps 658 mmHg 43%
    23:00 +14°C° 0 mm 3 mps 658 mmHg 43%

    Tomorrow, 25 May, Friday

    Time Temperature Precipitation Wind Pressure Humidity
    00:00 +14°C° 0 mm 2 mps 658 mmHg 42%
    01:00 +14°C° 0 mm 2 mps 658 mmHg 41%
    02:00 +14°C° 0 mm 2 mps 658 mmHg 40%
    03:00 +14°C° 0 mm 2 mps 658 mmHg 40%
    04:00 +15°C° 0 mm 2 mps 658 mmHg 41%
    05:00 +15°C° 0 mm 2 mps 658 mmHg 42%
    06:00 +16°C° 0 mm 2 mps 658 mmHg 43%
    07:00 +18°C° 0 mm 2 mps 659 mmHg 39%
    08:00 +20°C° 0 mm 2 mps 659 mmHg 36%
    09:00 +23°C° 0 mm 2 mps 659 mmHg 32%
    10:00 +24°C° 0 mm 2 mps 659 mmHg 32%
    11:00 +25°C° 0 mm 2 mps 659 mmHg 31%
    12:00 +26°C° 0 mm 3 mps 659 mmHg 31%
    13:00 +26°C° 0.2 mm 3 mps 659 mmHg 32%
    14:00 +26°C° 0.2 mm 3 mps 659 mmHg 32%
    15:00 +26°C° 0.2 mm 2 mps 658 mmHg 33%
    16:00 +25°C° 0.3 mm 2 mps 658 mmHg 38%
    17:00 +24°C° 0.3 mm 2 mps 658 mmHg 43%
    18:00 +23°C° 0.3 mm 1 mps 657 mmHg 49%
    19:00 +21°C° 0.2 mm 2 mps 657 mmHg 52%
    20:00 +19°C° 0.2 mm 2 mps 657 mmHg 55%
    21:00 +17°C° 0.2 mm 2 mps 657 mmHg 58%
    22:00 +17°C° 0.1 mm 2 mps 657 mmHg 58%
    23:00 +17°C° 0.1 mm 2 mps 657 mmHg 59%

    Day after tomorrow, 26 May, Saturday

    Time Temperature Precipitation Wind Pressure Humidity
    00:00 +16°C° 0.1 mm 2 mps 657 mmHg 59%
    01:00 +16°C° 0 mm 2 mps 657 mmHg 58%
    02:00 +16°C° 0 mm 2 mps 657 mmHg 58%
    03:00 +16°C° 0 mm 2 mps 657 mmHg 57%
    04:00 +16°C° 0 mm 2 mps 658 mmHg 57%
    05:00 +17°C° 0 mm 2 mps 658 mmHg 56%
    06:00 +18°C° 0 mm 2 mps 658 mmHg 55%
    07:00 +19°C° 0 mm 2 mps 659 mmHg 49%
    08:00 +21°C° 0 mm 2 mps 660 mmHg 43%
    09:00 +24°C° 0 mm 2 mps 660 mmHg 38%
    10:00 +25°C° 0 mm 2 mps 660 mmHg 36%
    11:00 +26°C° 0 mm 2 mps 660 mmHg 35%
    12:00 +27°C° 0 mm 3 mps 660 mmHg 34%
    13:00 +27°C° 0 mm 3 mps 660 mmHg 33%
    14:00 +28°C° 0 mm 3 mps 660 mmHg 33%
    15:00 +28°C° 0 mm 3 mps 660 mmHg 33%
    16:00 +27°C° 0.2 mm 3 mps 660 mmHg 38%
    17:00 +26°C° 0.2 mm 2 mps 660 mmHg 43%
    18:00 +25°C° 0.2 mm 2 mps 660 mmHg 48%
    19:00 +23°C° 0 mm 2 mps 660 mmHg 54%
    20:00 +20°C° 0 mm 2 mps 660 mmHg 59%
    21:00 +18°C° 0 mm 2 mps 660 mmHg 65%
    22:00 +17°C° 0 mm 2 mps 660 mmHg 65%
    23:00 +17°C° 0 mm 2 mps 660 mmHg 65%

    27 May, Sunday

    Time Temperature Precipitation Wind Pressure Humidity
    00:00 +17°C° 0 mm 2 mps 661 mmHg 65%
    01:00 +16°C° 0 mm 2 mps 661 mmHg 65%
    02:00 +16°C° 0 mm 1 mps 661 mmHg 65%
    03:00 +16°C° 0 mm 1 mps 661 mmHg 64%
    04:00 +18°C° 0 mm 1 mps 662 mmHg 64%
    05:00 +18°C° 0 mm 1 mps 662 mmHg 63%
    06:00 +19°C° 0 mm 1 mps 663 mmHg 63%
    07:00 +19°C° 0 mm 2 mps 663 mmHg 56%
    08:00 +21°C° 0 mm 3 mps 664 mmHg 49%
    09:00 +22°C° 0 mm 5 mps 665 mmHg 42%
    10:00 +23°C° 0 mm 5 mps 665 mmHg 40%
    11:00 +23°C° 0 mm 5 mps 665 mmHg 39%
    12:00 +24°C° 0 mm 6 mps 665 mmHg 37%
    13:00 +23°C° 0.1 mm 6 mps 665 mmHg 39%
    14:00 +23°C° 0.1 mm 6 mps 665 mmHg 40%
    15:00 +23°C° 0.1 mm 6 mps 664 mmHg 42%
    16:00 +21°C° 0 mm 5 mps 664 mmHg 46%
    17:00 +20°C° 0 mm 5 mps 664 mmHg 51%
    18:00 +19°C° 0 mm 4 mps 664 mmHg 55%
    19:00 +17°C° 0 mm 3 mps 664 mmHg 60%
    20:00 +14°C° 0 mm 3 mps 664 mmHg 65%
    21:00 +14°C° 0 mm 2 mps 664 mmHg 70%
    22:00 +13°C° 0 mm 2 mps 664 mmHg 70%
    23:00 +13°C° 0 mm 1 mps 664 mmHg 70%

    28 May, Monday

    Time Temperature Precipitation Wind Pressure Humidity
    00:00 +13°C° 0 mm 1 mps 664 mmHg 71%
    01:00 +12°C° 0 mm 1 mps 664 mmHg 71%
    02:00 +12°C° 0 mm 1 mps 664 mmHg 70%
    03:00 +12°C° 0 mm 1 mps 663 mmHg 70%
    04:00 +13°C° 0 mm 1 mps 664 mmHg 67%
    05:00 +14°C° 0 mm 1 mps 664 mmHg 64%
    06:00 +15°C° 0 mm 1 mps 664 mmHg 61%
    07:00 +16°C° 0 mm 1 mps 664 mmHg 55%
    08:00 +18°C° 0 mm 2 mps 665 mmHg 49%
    09:00 +20°C° 0 mm 2 mps 665 mmHg 43%
    10:00 +21°C° 0 mm 2 mps 664 mmHg 41%
    11:00 +24°C° 0 mm 2 mps 664 mmHg 38%
    12:00 +25°C° 0 mm 2 mps 664 mmHg 36%
    13:00 +25°C° 0 mm 2 mps 664 mmHg 36%
    14:00 +26°C° 0 mm 2 mps 663 mmHg 35%
    15:00 +26°C° 0 mm 3 mps 663 mmHg 34%
    16:00 +25°C° 0 mm 2 mps 662 mmHg 38%
    17:00 +25°C° 0 mm 2 mps 662 mmHg 42%
    18:00 +24°C° 0 mm 2 mps 662 mmHg 46%
    19:00 +21°C° 0 mm 2 mps 662 mmHg 49%
    20:00 +20°C° 0 mm 1 mps 661 mmHg 52%
    21:00 +19°C° 0 mm 1 mps 661 mmHg 55%
    22:00 +18°C° 0 mm 1 mps 661 mmHg 56%
    23:00 +18°C° 0 mm 1 mps 661 mmHg 57%

    29 May, Tuesday

    Time Temperature Precipitation Wind Pressure Humidity
    00:00 +16°C° 0 mm 2 mps 661 mmHg 57%
    01:00 +16°C° 0 mm 1 mps 660 mmHg 58%
    02:00 +16°C° 0 mm 1 mps 660 mmHg 58%
    03:00 +15°C° 0 mm 1 mps 660 mmHg 58%
    04:00 +16°C° 0 mm 1 mps 660 mmHg 58%
    05:00 +18°C° 0 mm 1 mps 661 mmHg 57%
    06:00 +19°C° 0 mm 1 mps 661 mmHg 56%
    07:00 +20°C° 0 mm 1 mps 661 mmHg 51%
    08:00 +21°C° 0 mm 2 mps 662 mmHg 46%
    09:00 +22°C° 0 mm 3 mps 662 mmHg 42%
    10:00 +24°C° 0 mm 3 mps 662 mmHg 40%
    11:00 +25°C° 0 mm 3 mps 662 mmHg 39%
    12:00 +26°C° 0 mm 4 mps 662 mmHg 38%
    13:00 +25°C° 0.1 mm 4 mps 662 mmHg 41%
    14:00 +23°C° 0.1 mm 5 mps 661 mmHg 45%
    15:00 +23°C° 0.1 mm 5 mps 661 mmHg 48%
    16:00 +22°C° 0.1 mm 5 mps 661 mmHg 52%
    17:00 +21°C° 0.1 mm 5 mps 660 mmHg 55%
    18:00 +19°C° 0.1 mm 4 mps 660 mmHg 59%
    19:00 +18°C° 0 mm 4 mps 660 mmHg 64%
    20:00 +16°C° 0 mm 3 mps 660 mmHg 68%
    21:00 +14°C° 0 mm 2 mps 660 mmHg 72%
    22:00 +14°C° 0 mm 2 mps 660 mmHg 73%
    23:00 +13°C° 0 mm 2 mps 660 mmHg 73%
    Show more